FW5295 Weather Reports


time (UTC)temp
F
wind
direction
speed
knots
gust
knots
rain 1hr
in
rain 24hr
in
rain mn
in
humidity
%
barometer
mb
20260831041318 72 220 3.5 4.3 0.00 0.23 0.23 96 1013.7
20260831040817 72 212 1.7 4.3 0.00 0.23 0.23 97 1014.0
20260831040318 72 235 1.7 3.5 0.00 0.23 0.23 97 1014.0
20260831040038 72 226 2.6 3.5 0.01 0.23 0.23 97 1014.3
20260831035318 72 221 1.7 2.6 0.01 0.23 0.23 98 1014.3
20260831034816 71 234 0.9 2.6 0.01 0.23 0.23 98 1014.3
20260831034316 71 223 0.9 1.7 0.01 0.23 0.23 98 1014.3
20260831033815 71 221 0.9 1.7 0.01 0.23 0.23 98 1014.3
20260831033315 71 226 0.0 1.7 0.01 0.23 0.23 98 1014.3
20260831033036 71 189 0.9 1.7 0.01 0.23 0.23 98 1014.3
20260831032314 71 220 1.7 2.6 0.01 0.23 0.23 98 1014.3
20260831031813 72 180 1.7 2.6 0.01 0.23 0.23 98 1014.7
20260831031312 72 148 1.7 1.7 0.01 0.23 0.23 98 1014.7
20260831030813 71 67 0.0 1.7 0.01 0.23 0.23 97 1015.0
20260831030536 72 63 1.7 1.7 0.01 0.23 0.23 97 1015.0
20260831025811 72 55 0.0 1.7 0.00 0.22 0.22 97 1015.0
20260831025539 72 129 0.0 1.7 0.00 0.22 0.22 97 1014.7
20260831024811 72 233 0.9 2.6 0.01 0.22 0.22 97 1015.0
20260831024310 72 221 1.7 3.5 0.01 0.22 0.22 97 1015.4
20260831023810 72 285 1.7 3.5 0.02 0.22 0.22 97 1015.4
20260831023757 72 333 0.9 1.7 0.02 0.22 0.22 97 1015.4
20260831022810 72 234 0.9 1.7 0.02 0.22 0.22 96 1015.4
20260831022307 72 162 0.9 1.7 0.02 0.22 0.22 96 1015.4
20260831021809 72 217 0.0 1.7 0.02 0.22 0.22 96 1015.4
20260831021307 72 224 0.0 1.7 0.02 0.22 0.22 96 1015.4
20260831021030 72 240 0.0 1.7 0.03 0.22 0.22 96 1015.4
20260831020306 72 221 0.9 2.6 0.03 0.22 0.22 96 1015.0
20260831015804 72 192 1.7 2.6 0.03 0.22 0.22 95 1014.7
20260831015305 72 219 0.0 2.6 0.03 0.22 0.22 95 1015.0
20260831014805 72 190 0.0 2.6 0.02 0.21 0.21 95 1014.7
20260831014304 72 189 0.9 2.6 0.02 0.21 0.21 95 1015.0
20260831014023 72 175 1.7 2.6 0.01 0.20 0.20 94 1015.0
20260831013304 72 192 1.7 2.6 0.01 0.20 0.20 94 1015.0
20260831012803 72 221 0.9 2.6 0.01 0.20 0.20 94 1015.0
20260831012305 72 235 0.0 1.7 0.01 0.20 0.20 94 1015.0
20260831011801 72 239 0.0 1.7 0.01 0.20 0.20 94 1014.7
20260831011301 72 229 1.7 1.7 0.01 0.20 0.20 94 1014.7
20260831010801 73 207 1.7 1.7 0.00 0.19 0.19 94 1014.7
20260831010300 73 221 1.7 3.5 0.00 0.19 0.19 94 1014.7
20260831005759 73 186 1.7 3.5 0.00 0.19 0.19 94 1014.7
20260831005259 73 290 3.5 3.5 0.00 0.19 0.19 94 1014.7
20260831004757 73 197 1.7 2.6 0.00 0.19 0.19 94 1014.3
20260831004257 73 152 1.7 3.5 0.00 0.19 0.19 93 1014.7
20260831003757 73 263 1.7 5.2 0.00 0.19 0.19 93 1014.3
20260831003256 73 187 2.6 5.2 0.00 0.19 0.19 93 1014.3
20260831002756 73 183 1.7 2.6 0.00 0.19 0.19 93 1014.7
20260831002255 73 155 0.9 2.6 0.00 0.19 0.19 93 1014.7
20260831001755 73 252 0.9 5.2 0.00 0.19 0.19 93 1014.7
20260831001255 73 190 2.6 5.2 0.00 0.19 0.19 94 1014.3
20260831000755 73 203 1.7 4.3 0.00 0.19 0.19 94 1014.7
20260831000518 73 223 0.0 4.3 0.00 0.19 0.19 94 1014.7
20260831000023 73 189 1.7 6.1 0.00 0.19 0.19 94 1014.3
20260830235253 73 157 1.7 6.1 0.00 0.19 0.19 94 1014.3
20260830234752 72 139 1.7 5.2 0.00 0.19 0.19 95 1014.3
20260830234251 72 164 1.7 5.2 0.00 0.19 0.19 95 1014.7
20260830233750 72 205 1.7 5.2 0.00 0.19 0.19 95 1014.7
20260830233249 72 207 1.7 4.3 0.00 0.19 0.19 95 1014.7
20260830233010 72 214 1.7 1.7 0.00 0.19 0.19 95 1014.7
20260830232510 72 206 0.0 3.5 0.00 0.19 0.19 95 1014.7
20260830231749 72 182 2.6 4.3 0.01 0.19 0.19 95 1014.3
20260830231507 72 170 0.0 4.3 0.01 0.19 0.19 95 1014.3
20260830230750 72 170 1.7 4.3 0.01 0.19 0.19 95 1014.7
20260830230248 72 119 0.0 1.7 0.01 0.19 0.19 95 1015.0
20260830225745 72 156 0.9 3.5 0.01 0.19 0.19 94 1014.7
20260830225247 72 180 1.7 3.5 0.01 0.19 0.19 94 1014.7
20260830224745 73 119 0.0 3.5 0.02 0.19 0.19 94 1014.3
20260830224245 73 125 1.7 5.2 0.02 0.19 0.19 94 1014.3
20260830224008 73 190 2.6 5.2 0.02 0.19 0.19 94 1014.3
20260830223244 73 174 1.7 4.3 0.02 0.19 0.19 93 1014.7
20260830222743 73 177 1.7 3.5 0.02 0.19 0.19 93 1015.0
20260830222511 73 205 1.7 2.6 0.02 0.19 0.19 93 1015.4
20260830221741 73 208 0.0 1.7 0.01 0.18 0.18 93 1015.4
20260830221243 73 234 1.7 1.7 0.01 0.18 0.18 93 1015.4
20260830220742 73 203 0.9 1.7 0.01 0.18 0.18 92 1015.0
20260830220243 73 198 0.9 1.7 0.01 0.18 0.18 92 1015.4
20260830215740 73 219 0.0 3.5 0.01 0.18 0.18 91 1015.4
20260830215240 73 202 0.0 3.5 0.01 0.18 0.18 91 1015.0
20260830214740 73 172 1.7 1.7 0.00 0.17 0.17 90 1015.0
20260830214244 74 224 0.0 1.7 0.00 0.17 0.17 90 1015.4
20260830214006 74 238 0.9 2.6 0.00 0.17 0.17 90 1015.0
20260830213505 74 178 1.7 2.6 0.00 0.17 0.17 90 1015.4
20260830212749 74 193 1.7 1.7 0.00 0.17 0.17 90 1015.4
20260830212237 74 236 1.7 1.7 0.00 0.17 0.17 89 1015.0
20260830211737 74 176 0.9 2.6 0.00 0.17 0.17 89 1015.4
20260830211453 74 202 0.0 2.6 0.00 0.17 0.17 89 1015.4
20260830210736 74 240 0.0 2.6 0.00 0.17 0.17 89 1015.4
20260830210456 74 204 0.9 2.6 0.00 0.17 0.17 88 1015.4
20260830205734 74 183 1.7 1.7 0.00 0.17 0.17 88 1015.4
20260830205234 74 196 1.7 1.7 0.00 0.17 0.17 87 1015.0
20260830205000 74 256 0.9 2.6 0.00 0.17 0.17 87 1015.4
20260830204233 74 205 1.7 3.5 0.00 0.17 0.17 88 1015.4
20260830204220 74 201 1.7 3.5 0.00 0.17 0.17 88 1015.0
20260830203243 74 169 0.9 3.5 0.00 0.17 0.17 88 1015.0
20260830203009 74 169 1.7 4.3 0.00 0.17 0.17 88 1015.4
20260830202231 74 219 1.7 4.3 0.00 0.17 0.17 89 1015.0
20260830201947 74 237 0.9 3.5 0.00 0.17 0.17 89 1015.0
20260830201228 74 227 2.6 2.6 0.00 0.17 0.17 89 1015.4
20260830200728 74 240 1.7 4.3 0.00 0.17 0.17 88 1015.4
20260830200230 74 233 1.7 4.3 0.00 0.17 0.17 87 1015.4
20260830195729 74 234 2.6 4.3 0.00 0.17 0.17 86 1015.4
20260830195228 74 260 3.5 5.2 0.00 0.17 0.17 85 1015.4
20260830194726 75 217 1.7 7.0 0.00 0.17 0.17 86 1015.0
20260830194227 75 242 1.7 7.0 0.01 0.17 0.17 85 1015.4
20260830193725 75 262 1.7 6.1 0.03 0.17 0.17 87 1015.4
20260830193225 74 202 1.7 6.1 0.03 0.17 0.17 88 1015.0
20260830192727 74 237 1.7 3.5 0.03 0.17 0.17 90 1015.0
20260830192446 73 235 0.9 3.5 0.03 0.17 0.17 91 1014.7
20260830191723 73 210 1.7 3.5 0.03 0.17 0.17 92 1015.0
20260830191223 73 229 1.7 3.5 0.03 0.17 0.17 92 1014.7
20260830190724 73 266 1.7 3.5 0.03 0.17 0.17 93 1014.7
20260830190223 73 203 0.0 1.7 0.03 0.17 0.17 92 1015.0
20260830185722 73 242 1.7 1.7 0.03 0.17 0.17 91 1015.0
20260830185222 74 272 0.0 3.5 0.03 0.17 0.17 89 1015.0
20260830184722 74 209 1.7 3.5 0.03 0.17 0.17 87 1015.0
20260830184220 75 241 2.6 4.3 0.01 0.15 0.15 85 1015.4
20260830183719 76 266 2.6 5.2 0.00 0.14 0.14 81 1015.0
20260830183218 77 285 3.5 5.2 0.00 0.14 0.14 78 1015.0
20260830182718 78 258 2.6 5.2 0.00 0.14 0.14 77 1014.7
20260830182219 79 232 3.5 7.8 0.00 0.14 0.14 74 1014.3
20260830181718 80 252 1.7 7.8 0.00 0.14 0.14 72 1014.7
20260830181217 80 292 0.9 5.2 0.00 0.14 0.14 73 1014.3
20260830180719 80 206 4.3 5.2 0.00 0.14 0.14 72 1014.0
20260830180218 80 211 2.6 9.6 0.00 0.14 0.14 71 1014.0
20260830175935 80 236 3.5 9.6 0.00 0.14 0.14 71 1013.7
20260830175217 80 240 7.8 8.7 0.00 0.14 0.14 69 1013.7
20260830174939 80 233 1.7 7.8 0.00 0.14 0.14 70 1013.7
20260830174213 80 246 2.6 7.8 0.00 0.14 0.14 69 1013.7
20260830173715 80 239 5.2 7.8 0.00 0.14 0.14 69 1013.7
20260830173212 80 220 5.2 7.8 0.00 0.14 0.14 68 1013.7
20260830172714 80 219 3.5 7.0 0.00 0.14 0.14 71 1014.0
20260830172214 79 218 4.3 9.6 0.00 0.14 0.14 71 1013.7
20260830171714 79 201 5.2 9.6 0.00 0.14 0.14 72 1014.0
20260830171211 78 141 1.7 8.7 0.00 0.14 0.14 73 1014.3
20260830170709 78 229 1.7 7.8 0.00 0.14 0.14 74 1014.3
20260830170428 78 219 3.5 8.7 0.00 0.14 0.14 74 1014.3
20260830165712 78 223 5.2 8.7 0.00 0.14 0.14 74 1014.3
20260830165210 77 189 5.2 7.0 0.00 0.14 0.14 76 1014.3
20260830164711 77 243 1.7 7.8 0.00 0.14 0.14 75 1014.3
20260830164428 77 173 6.1 7.8 0.00 0.14 0.14 76 1014.3
20260830163707 76 242 2.6 7.0 0.00 0.14 0.14 76 1014.3
20260830163207 76 223 1.7 8.7 0.00 0.14 0.14 78 1014.3
20260830162707 76 210 2.6 8.7 0.00 0.14 0.14 76 1014.3
20260830162206 76 220 2.6 7.0 0.00 0.14 0.14 78 1014.3
20260830161705 76 221 5.2 7.8 0.00 0.14 0.14 76 1014.3
20260830161426 76 243 3.5 7.8 0.00 0.14 0.14 77 1014.3
20260830160705 76 263 0.9 7.8 0.00 0.14 0.14 76 1014.3
20260830160203 76 248 3.5 7.0 0.00 0.14 0.14 77 1014.3
20260830155705 76 181 2.6 5.2 0.00 0.14 0.14 78 1014.3
20260830155203 76 228 4.3 6.1 0.00 0.14 0.14 79 1014.3
20260830154701 75 231 3.5 6.1 0.00 0.14 0.14 79 1014.0
20260830154203 75 256 1.7 4.3 0.00 0.14 0.14 81 1014.0
20260830153702 75 216 2.6 6.1 0.00 0.14 0.14 80 1014.3
20260830153204 75 237 3.5 6.1 0.00 0.14 0.14 79 1014.3
20260830152659 75 212 1.7 6.1 0.00 0.14 0.14 81 1014.0
20260830152201 75 321 0.9 5.2 0.00 0.14 0.14 81 1014.0
20260830151659 75 244 1.7 5.2 0.00 0.14 0.14 81 1014.3
20260830151200 74 194 2.6 6.1 0.00 0.14 0.14 84 1014.0
20260830150658 74 225 0.9 7.0 0.00 0.14 0.14 83 1014.3
20260830150158 73 172 4.3 7.0 0.00 0.14 0.14 84 1014.3
20260830145926 73 161 3.5 5.2 0.00 0.14 0.14 86 1014.0
20260830145157 72 245 2.6 5.2 0.00 0.14 0.14 87 1014.0
20260830144656 72 171 3.5 6.1 0.00 0.14 0.14 88 1014.0
20260830144157 71 193 1.7 6.1 0.00 0.14 0.14 90 1014.0
20260830143656 70 182 3.5 5.2 0.00 0.14 0.14 92 1014.0
20260830143639 70 184 1.7 6.1 0.00 0.14 0.14 94 1014.3
20260830142656 69 205 2.6 6.1 0.00 0.14 0.14 94 1014.3
20260830142413 69 237 1.7 4.3 0.00 0.14 0.14 95 1014.3
20260830141912 69 194 4.3 4.3 0.00 0.14 0.14 95 1014.3
20260830141153 68 162 2.6 4.3 0.00 0.14 0.14 95 1014.7
20260830140653 68 254 2.6 3.5 0.00 0.14 0.14 96 1014.7
20260830140151 68 235 1.7 3.5 0.00 0.14 0.14 96 1014.7
20260830135651 68 189 3.5 3.5 0.00 0.14 0.14 96 1014.7
20260830135150 68 175 0.0 3.5 0.00 0.14 0.14 96 1014.7
20260830134651 68 217 2.6 6.1 0.00 0.14 0.14 97 1014.3
20260830134149 68 177 2.6 6.1 0.00 0.14 0.14 97 1014.3
20260830133649 67 210 2.6 5.2 0.01 0.14 0.14 97 1014.3
20260830133148 67 191 2.6 5.2 0.01 0.14 0.14 97 1014.7
20260830132650 67 231 1.7 6.1 0.04 0.14 0.14 97 1014.7
20260830132358 67 180 3.5 6.1 0.08 0.14 0.14 97 1015.0
20260830132247 67 199 2.6 6.1 0.08 0.14 0.14 97 1014.7
20260830131145 67 204 2.6 7.0 0.08 0.14 0.14 97 1015.0
20260830130646 67 171 2.6 7.0 0.09 0.14 0.14 97 1015.4
20260830130144 67 216 1.7 5.2 0.10 0.14 0.14 97 1015.4
20260830125905 67 191 3.5 7.8 0.10 0.14 0.14 97 1015.4
20260830125347 67 183 2.6 5.2 0.10 0.14 0.14 96 1015.4
20260830125240 67 159 4.3 7.8 0.10 0.14 0.14 97 1015.4
20260830124144 67 139 2.6 5.2 0.11 0.14 0.14 96 1015.4
20260830123642 67 233 3.5 4.3 0.11 0.13 0.13 96 1015.4
20260830123145 67 193 3.5 4.3 0.11 0.13 0.13 96 1015.4
20260830122641 67 218 2.6 4.3 0.06 0.08 0.08 96 1015.7
20260830122142 67 215 3.5 4.3 0.05 0.06 0.06 96 1015.7
20260830121641 67 229 2.6 4.3 0.05 0.06 0.06 95 1015.4
20260830121139 67 191 1.7 5.2 0.06 0.06 0.06 95 1016.0
20260830120641 67 244 2.6 5.2 0.05 0.05 0.05 95 1016.0
20260830120403 67 230 3.5 4.3 0.04 0.04 0.04 95 1015.4
20260830115638 67 223 2.6 3.5 0.04 0.04 0.04 94 1015.4
20260830115137 67 217 1.7 4.3 0.04 0.04 0.04 94 1015.7
20260830114639 67 238 2.6 4.3 0.04 0.04 0.04 94 1015.4
20260830114404 67 235 2.6 3.5 0.03 0.03 0.03 93 1015.4
20260830113858 67 244 1.7 3.5 0.02 0.02 0.02 92 1015.4
20260830113141 67 229 2.6 4.3 0.02 0.02 0.02 91 1015.4
20260830113127 67 224 2.6 4.3 0.02 0.02 0.02 90 1015.4
20260830112135 68 202 1.7 4.3 0.01 0.01 0.01 88 1015.0
20260830111637 68 207 2.6 3.5 0.01 0.01 0.01 87 1014.7
20260830111136 69 273 0.9 2.6 0.00 0.00 0.00 86 1015.0
20260830110634 69 188 0.0 2.6 0.00 0.00 0.00 85 1014.7
20260830110133 69 211 0.9 3.5 0.00 0.00 0.00 84 1014.7
20260830105634 69 214 0.9 3.5 0.00 0.00 0.00 84 1014.7
20260830105131 69 242 1.7 3.5 0.00 0.00 0.00 83 1014.3
20260830104634 69 204 1.7 4.3 0.00 0.00 0.00 83 1014.3
20260830104131 69 160 2.6 4.3 0.00 0.00 0.00 83 1014.3
20260830103631 69 154 1.7 3.5 0.00 0.00 0.00 83 1014.7
20260830103131 69 225 2.6 4.3 0.00 0.00 0.00 83 1014.3
20260830102630 69 231 2.6 4.3 0.00 0.00 0.00 83 1014.3
20260830102128 69 168 3.5 4.3 0.00 0.00 0.00 83 1014.3
20260830101628 69 231 1.7 4.3 0.00 0.00 0.00 83 1014.3
20260830101127 69 185 1.7 5.2 0.00 0.00 0.00 83 1014.0
20260830100627 69 106 1.7 5.2 0.00 0.00 0.00 83 1014.0
20260830100126 68 189 3.5 5.2 0.00 0.00 0.00 83 1014.0
20260830095626 68 218 2.6 5.2 0.00 0.00 0.00 83 1014.0
20260830095346 68 205 1.7 5.2 0.00 0.00 0.00 83 1014.0
20260830094626 68 196 1.7 5.2 0.00 0.00 0.00 83 1013.7
20260830094124 68 197 1.7 5.2 0.00 0.00 0.00 83 1013.7
20260830093625 68 195 1.7 5.2 0.00 0.00 0.00 83 1013.7
20260830093124 68 213 1.7 5.2 0.00 0.00 0.00 83 1013.7
20260830092624 68 178 3.5 3.5 0.00 0.00 0.00 83 1013.7
20260830092122 68 201 2.6 4.3 0.00 0.00 0.00 84 1014.0
20260830091622 68 207 1.7 4.3 0.00 0.00 0.00 84 1014.0
20260830091124 68 207 2.6 3.5 0.00 0.00 0.00 84 1014.0
20260830090620 68 217 1.7 4.3 0.00 0.00 0.00 84 1014.0
20260830090126 67 165 2.6 5.2 0.00 0.00 0.00 84 1014.0
20260830085620 67 164 2.6 5.2 0.00 0.00 0.00 84 1014.0
20260830085119 68 185 1.7 5.2 0.00 0.00 0.00 84 1014.0
20260830084621 68 200 3.5 5.2 0.00 0.00 0.00 84 1014.3
20260830084118 68 184 2.6 4.3 0.00 0.00 0.00 84 1013.7
20260830083618 68 185 2.6 4.3 0.00 0.00 0.00 83 1014.3
20260830083118 68 195 2.6 4.3 0.00 0.00 0.00 83 1014.3
20260830082620 69 204 3.5 7.0 0.00 0.00 0.00 82 1014.0
20260830082118 69 179 1.7 7.0 0.00 0.00 0.00 81 1014.3
20260830081617 69 253 1.7 5.2 0.00 0.00 0.00 81 1014.3
20260830081116 69 195 2.6 4.3 0.00 0.00 0.00 80 1014.3
20260830080615 69 190 2.6 5.2 0.00 0.00 0.00 80 1014.3
20260830080117 69 160 5.2 5.2 0.00 0.00 0.00 79 1014.3
20260830075614 69 304 1.7 5.2 0.00 0.00 0.00 79 1014.7
20260830075115 69 169 2.6 4.3 0.00 0.00 0.00 79 1014.7
20260830074615 69 188 3.5 4.3 0.00 0.00 0.00 79 1014.3
20260830074112 69 165 3.5 6.1 0.00 0.00 0.00 79 1014.7
20260830073611 69 194 1.7 6.1 0.00 0.00 0.00 79 1014.7
20260830073111 69 180 1.7 5.2 0.00 0.00 0.00 79 1014.7
20260830072610 70 202 0.0 5.2 0.00 0.00 0.00 79 1014.7
20260830072112 70 164 2.6 5.2 0.00 0.00 0.00 79 1014.7
20260830071610 70 186 2.6 5.2 0.00 0.00 0.00 78 1015.0
20260830071112 70 178 2.6 4.3 0.00 0.00 0.00 78 1014.7
20260830070835 70 166 2.6 3.5 0.00 0.00 0.00 78 1015.0
20260830070121 70 199 1.7 4.3 0.00 0.00 0.00 78 1015.0
20260830065608 70 166 3.5 5.2 0.00 0.00 0.00 77 1015.0
20260830065111 70 169 3.5 5.2 0.00 0.00 0.00 77 1015.0
20260830064608 70 163 3.5 5.2 0.00 0.00 0.00 77 1015.0
20260830064108 71 150 2.6 5.2 0.00 0.00 0.00 77 1015.0
20260830063606 71 227 2.6 5.2 0.00 0.00 0.00 77 1015.0
20260830063554 71 198 2.6 5.2 0.00 0.00 0.00 76 1015.0
20260830062829 71 231 1.7 7.0 0.00 0.00 0.00 76 1015.0
20260830062105 71 189 1.7 8.7 0.00 0.00 0.00 76 1015.0
20260830061606 71 239 3.5 8.7 0.00 0.00 0.00 76 1015.4
20260830061106 71 170 2.6 9.6 0.00 0.00 0.00 75 1015.0
20260830060603 71 176 5.2 9.6 0.00 0.00 0.00 75 1015.4
20260830060114 72 199 2.6 6.1 0.00 0.00 0.00 75 1015.4
20260830055601 72 159 4.3 8.7 0.00 0.00 0.00 75 1015.4
20260830055332 72 191 3.5 8.7 0.00 0.00 0.00 75 1015.4
20260830054601 72 169 2.6 8.7 0.00 0.00 0.00 74 1015.4
20260830054100 72 214 2.6 7.8 0.00 0.00 0.00 74 1015.4
20260830053603 72 177 5.2 7.8 0.00 0.00 0.00 74 1015.4
20260830053100 72 199 2.6 7.8 0.00 0.00 0.00 74 1015.4
20260830052559 72 191 2.6 7.8 0.00 0.00 0.00 74 1015.4
20260830052057 72 220 1.7 12.2 0.00 0.00 0.00 74 1015.4
20260830051558 72 142 3.5 12.2 0.00 0.00 0.00 74 1015.4
20260830051058 72 173 6.1 7.8 0.00 0.00 0.00 75 1015.4
20260830050558 72 172 1.7 7.0 0.00 0.00 0.00 75 1015.4
20260830050329 72 259 1.7 9.6 0.00 0.00 0.00 76 1015.4
20260830045555 72 154 8.7 9.6 0.00 0.00 0.00 76 1015.0
20260830045056 72 184 2.6 8.7 0.00 0.00 0.00 76 1015.0
20260830044555 72 220 2.6 8.7 0.00 0.00 0.00 77 1015.0
20260830044054 72 198 1.7 9.6 0.00 0.00 0.00 77 1015.4
20260830043554 72 198 4.3 9.6 0.00 0.00 0.00 77 1015.4
20260830043054 72 176 6.1 10.4 0.00 0.00 0.00 77 1015.4
20260830042552 72 157 2.6 10.4 0.00 0.00 0.00 78 1015.4
20260830042052 72 181 3.5 9.6 0.00 0.00 0.00 77 1015.4
20260830041811 72 159 4.3 9.6 0.00 0.00 0.00 78 1015.4